SL-12 R/B(AUX MOTOR), 4789

Orbit data source: Space-Track

SL-12 R/B(AUX MOTOR), 4789 is space debris in LEO originally from a launch on Wed, 02 Dec 1970 UTC launched from the Tyuratam Missile And Space Complex (TTMTR). Debris objects in space refer to the collection of defunct objects orbiting the Earth. Examples of debris include non-operational satellites, rocket bodies, and fragments generated from explosions, collisions, or faulty payload assembly.

Loading next visibility...
Identifier
4789, 1970-103B
Orbit
LEO
Country
Flag of CISCIS
Related business
Manufacturer
TsKBEM
Mission
Spacecraft
Bus & Motor
SOZ, Unknown motor
Mass
Wet unknown, ~60 kg dry
Launch date (UTC)
1970-12-02 (55 years ago)
Launch vehicle
Unknown
Launch site
Tyuratam Missile And Space Complex (TTMTR)
Object type
Payload
Rocket body
Debris
Shape & HBR
Unknown
Radar Cross Section
Medium (>0.1 m² and <1 m²)

Expand to show TLE details & history
Last TLE update: 23 hours ago

TLE from 23 hours ago
0 SL-12 R/B(AUX MOTOR)
1 04789U 70103B   25305.56836120 -.00000042  00000-0 -49251-3 0  9997
2 04789  51.5865 147.1666 1800162 321.7639  46.7167  9.06809553819048
Epoch: 2025-11-01T13:38Z
TLE epoch observation values (Epoch: 2025-11-01T13:38:26.407Z)
Latitude
20.07946°
Longitude
-81.76868°
Altitude
2,337.676 km
Speed
7.104 km/s
True Right ascension
10h 55m 45s
True Declination
19° 59' 20"
Sunlit
Object was in daylight at epoch
Visualization orbit readout
Latitude
Unknown
Longitude
Unknown
Altitude
Unknown
Speed
Unknown
Apparent Right ascension
Unknown
Apparent Declination
Unknown
Sunlit
N/A
Visualization observer readout
Local Sidereal Time
08:54:01
Azimuth
Unknown
Elevation
Unknown
Doppler factor
Unknown
Orbital elements
Apogee altitude
5,084.808 km
Perigee altitude
1,587.371 km
Semi-major axis
9,714.226 km
Eccentricity
0.18002
Inclination
51.5865°
RAAN
147.1666°
Arg. of periapsis
321.7639°
True anomaly
64.17027°
Mean anomaly
46.7167°
Eccentric anomaly
55.18459°
Mean motion
2.26689 °/min
Orbital period
158.81 mins
BSTAR
-0.00049251
Loading maneuver chart data...
Computing Atmospheric mass density...
Loading historical data...
Loading historical data...
Loading historical data...
Loading historical data...
Loading historical data...
Loading historical data...
Loading historical data...

Documentation

Showing up to 5 results
|